Voltar ao catálogo

SL-16 DEB

AtivoLEO
NORAD 22816·DEBRIS·🇷🇺 Russia

Lançado Dec 25, 1992 de Baikonur Cosmodrome

Loading…

Próximas Passagens (próximas 24 horas)

TLE

AtualizadoSource: Space-Track

Época: Sep 13, 2026, 10:46 UTC

1 22816U 92093JC  26256.44896324  .00027012  00000-0  27664-2 0  9992
2 22816  71.4373 260.1989 0030410 175.5312 184.6131 14.90055792722842

Acompanhe SL-16 DEB em tempo real com AllMySat

Download on the App Store